La Ronde de St Jans

Class.NomPrénomSexeCatTempsVitesse
1FAUVEZSébastienMSE00:34:5417,19 km/h
2DUBOISBenjaminMES00:35:3316,88 km/h
3SOHIERMICKAELMV100:36:5916,23 km/h
4BASTAERTJEAN MARCMV200:38:1315,7 km/h
5BASTAERTMaximeMSE00:38:1415,7 km/h
6LOTIGIEMAXIMEMJU00:38:2115,65 km/h
7BAILLIEULMartinMES00:38:2615,61 km/h
8BAFCOPCHRISTOPHEMV200:38:3315,57 km/h
9CASSEZCEDRICMV100:38:3615,55 km/h
10LIVOURYThomasMSE00:38:4015,52 km/h
11DECHERFFlorianMSE00:38:4715,47 km/h
12BAFCOPFLORIANMSE00:39:1015,32 km/h
13CARREIROTANGUYMSE00:39:1715,28 km/h
14DECLERCKKEVINMSE00:39:2415,23 km/h
15WACKERSEMMANUELMV100:39:3715,15 km/h
16CHAOUMOHAMMEDMV100:39:4115,12 km/h
17TURPINRUDYMV200:39:5015,06 km/h
18DEVULDERNICOLASMSE00:40:0614,96 km/h
19LECROARDBAPTISTEMES00:40:1014,94 km/h
20BELLYNCKJEROMEMV100:40:1414,92 km/h
21DENTENERVINCENTMSE00:40:1814,89 km/h
22FIEVETROMAINMSE00:40:2114,87 km/h
23BREBIONRICHARDMSE00:40:2214,86 km/h
24CAMPAGNEGEOFFREYMSE00:40:2614,84 km/h
25MINNEBERTRANDMV200:40:3214,8 km/h
26SOWABENJAMINMSE00:40:3814,77 km/h
27VLAEMYNCKRémiMSE00:40:4514,73 km/h
28BASTOENLOICMSE00:41:0014,64 km/h
29DUYCKCHARLESMSE00:41:0514,61 km/h
30DHALLUINBENOITMV100:41:0814,59 km/h
31DELAVIERPIERREMES00:41:3214,45 km/h
32DESSEAUXANDYMSE00:41:4514,38 km/h
33SIMONBRUNELLEMSE00:41:4714,36 km/h
34BREBIONGUILLAUMEMSE00:41:5114,34 km/h
35VANESLANDEPIERRE OLIVIERMV100:41:5214,34 km/h
36GESQUIEREDAVIDMSE00:41:5214,33 km/h
37DHAINENICOLASMV100:41:5714,31 km/h
38DEWULFFREDERICMSE00:41:5714,31 km/h
39BELPALMEDENISMSE00:41:5814,3 km/h
40DEPORTEERMANUELMSE00:42:0014,29 km/h
41TERRIERCLEMENTMSE00:42:0214,28 km/h
42BERTHELOOTDAVIDMSE00:42:0714,25 km/h
43BAILLIEULJEAN PIERREMV200:42:1014,23 km/h
44ANDOUCHELoïcMSE00:42:1414,21 km/h
45DEPATURESAMUELMSE00:42:2714,14 km/h
46GUERLAINFREDERICMV100:42:3514,09 km/h
47DELAHAYEBenoitMSE00:42:3814,08 km/h
48CAMBIERVIANNEYMJU00:42:4614,03 km/h
49MAESMARCMSE00:42:4914,01 km/h
50VANTORREFREDDYMV100:42:5114 km/h
51DEPATUREBRUNOMV200:42:5513,98 km/h
52PAUCHETMATHILDEFSE00:42:5813,97 km/h
53GREGORCZEKCHRISTOPHEMV100:43:0213,94 km/h
54LEJEUNERomainMSE00:43:0813,91 km/h
55POULETJEAN LUCMV200:43:0813,91 km/h
56CHEVALIERLaurentMV200:43:2213,84 km/h
57WALLAERTAlexandreMSE00:43:2513,82 km/h
58STAESHUGOMCA00:43:3013,8 km/h
59CARONPierreMV100:43:3513,77 km/h
60ANDOUCHEJustinMSE00:43:3513,77 km/h
61LANGLOISPierre FrançoisMSE00:43:3713,76 km/h
62LERMYTTEMarcMV100:43:4113,74 km/h
63PONCHAUXDAVIDMSE00:43:4613,71 km/h
64PLANCKEGREGORYMV100:43:5213,68 km/h
65CARLIERGUILLAUMEMV100:43:5413,67 km/h
66DEROOERICMV100:44:0813,6 km/h
67LALAUCHRISTOPHEMV100:44:0813,6 km/h
68SCHEERSLucasMSE00:44:1013,59 km/h
69DELUEGUETHEOMJU00:44:1213,58 km/h
70DEBACQMATHIEUMSE00:44:1613,55 km/h
71DELRUEDOMINIQUEMV100:44:1713,55 km/h
72LEFEVEREMichaelMSE00:44:1813,54 km/h
73DE SOUSATONYMSE00:44:2013,54 km/h
74PLANCKEJoelMV100:44:2113,53 km/h
75MARYCLEMENTMSE00:44:2213,53 km/h
76BELSLAURENTMV100:44:2713,5 km/h
77VAN-LIERDEFranckMV100:44:3613,46 km/h
78BAILLEULGauthierMSE00:44:3913,44 km/h
79GAKYEREFABIENMSE00:44:4013,43 km/h
80POTTEEUWJEAN PAULMV300:44:4513,41 km/h
81ISAACREMIMSE00:44:5013,39 km/h
82DEBREUCKGERALDMV100:44:5113,38 km/h
83BELLINESEBASTIENMSE00:44:5513,36 km/h
84D HAUDTLARRYMV100:44:5713,35 km/h
85BHEYCORENTINMSE00:44:5813,35 km/h
86LARDEURYannMSE00:45:0913,29 km/h
87PONCHAUXMAXIMEMSE00:45:0913,29 km/h
88BECKTHIERRYMV100:45:1613,26 km/h
89DESCHILDRERemyMSE00:45:1713,25 km/h
90LEFRANCQLOUISEMSE00:45:1813,25 km/h
91HÉNIARTSandyMV100:45:2513,21 km/h
92TREHOUXOLIVIERMV100:45:2913,19 km/h
93HAELEWYNBENJAMINMSE00:45:3113,19 km/h
94EECKHOUTTEFABRICEMSE00:45:3213,18 km/h
95FACONMICKAELMV100:45:3513,16 km/h
96MOROSINIBERNARDMV300:45:3713,15 km/h
97NEMRIBENOITMSE00:45:3813,15 km/h
98DESCAMPSFABIENMV100:45:3813,15 km/h
99DUQUESNOYXAVIERMV200:45:4113,14 km/h
100DEBAILLEULAntoineMSE00:45:4213,13 km/h
101BEYAERTPierreMSE00:45:4213,13 km/h
102VANDECAVEVEPIERRE LAURENTMSE00:45:4313,13 km/h
103FULLETLucasMSE00:45:4513,12 km/h
104LIONETSEBASTIENMV100:45:4613,11 km/h
105DUCROCQMAXIMEMSE00:45:5913,05 km/h
106DEVASEYNEThierryMV200:46:0113,04 km/h
107PROUMENLAURENTMV100:46:0713,01 km/h
108VERRIERJULIENMSE00:46:1013 km/h
109DUPLOUYDENISMV200:46:1212,99 km/h
110VIERENFRANCKMV100:46:1312,99 km/h
111VERRIERCHRISTOPHEMSE00:46:1512,98 km/h
112PAREINBENOITMV200:46:1712,96 km/h
113LEURSIngridFSE00:46:3012,91 km/h
114SYSSAUAlainMV300:46:3112,9 km/h
115BEHAEGELJULIENMSE00:46:3312,89 km/h
116WAELESSEVERINEFSE00:46:3712,87 km/h
117MICHELsebastienMSE00:46:4112,85 km/h
118VIGNYDANMSE00:46:4912,82 km/h
119CLAMOUSEGUILLAUMEMJU00:46:5112,81 km/h
120BODDAERTCYRILMSE00:46:5212,81 km/h
121BENAULTDAVIDMSE00:46:5312,8 km/h
122SIXJEAN MICHELMV200:46:5912,77 km/h
123LEICHTStephaneMV200:47:0012,77 km/h
124DAUCHYMICHAELMSE00:47:0112,76 km/h
125BUTSTRAENDominiqueMV100:47:0512,74 km/h
126COGEZFRANCOISMSE00:47:0812,73 km/h
127BLONDELLEMARTINMJU00:47:0912,73 km/h
128DEBERDTVALENTINMSE00:47:1012,72 km/h
129DEHORTERNICOLASMSE00:47:1012,72 km/h
130ASSEMANSAMUELMV100:47:1112,72 km/h
131TERRIERTHIERRYMV100:47:1212,71 km/h
132DAVAINERUDYMSE00:47:1412,71 km/h
133HARZIGJEAN DANIELMV200:47:1812,69 km/h
134DECERFNellyFV200:47:2212,67 km/h
135FREMONTSEBASTIENMV100:47:2412,66 km/h
136BELPALMEEMMANUELMV100:47:2512,66 km/h
137CHOMIHERVEMV100:47:2612,65 km/h
138DERYCKERECHRISTOPHEMV100:47:3012,63 km/h
139DHEESTEPHANEMV100:47:3212,62 km/h
140DERYCKEREJulietteFSE00:47:3412,62 km/h
141HUBAUDGaetanMV100:47:3712,6 km/h
142BEYAERTMickaelMSE00:47:3812,6 km/h
143DEREUDREDAVIDMV100:47:4112,59 km/h
144DHAINEFREDERICMSE00:47:4112,58 km/h
145VERMEULENVincentMV100:47:4812,56 km/h
146BOULANGERBERTRANDMV100:47:5112,54 km/h
147CAPOENEMMANUELMV100:47:5212,54 km/h
148HAVARD BELTZDORINEFJU00:47:5512,52 km/h
149MEESEMAECKERJEAN MARCMV100:47:5812,51 km/h
150BUTINCEDRICMV100:48:0012,5 km/h
151D'ORGEVILLECHISLAINMSE00:48:0212,49 km/h
152SISCHRISTIANMV200:48:0312,49 km/h
153MATTONCHRISTOPHEMV100:48:0612,48 km/h
154PERSYNBENOITMJU00:48:0612,48 km/h
155TERNESTNICOLASMV100:48:0812,47 km/h
156SEYNAEVEMATTHIEUMSE00:48:0912,46 km/h
157RUNNING GHRISSREGISMSE00:48:1012,46 km/h
158MOROSINIELISEFSE00:48:1112,45 km/h
159VERSTAEVELRomualdMV100:48:1312,45 km/h
160HUYGHEJackyMV100:48:1312,45 km/h
161DEGHOUYERICMV100:48:1412,44 km/h
162LANGLETJEAN LUCMV300:48:1612,43 km/h
163SCHRYVEERICMV100:48:1912,42 km/h
164DUBOISFLORIANMSE00:48:2412,4 km/h
165DHEEANTOINEMES00:48:2512,39 km/h
166DERHILLEVALENTINMSE00:48:2612,39 km/h
167MACKEMANUELMSE00:48:2612,39 km/h
168FRULEUXDENISMV100:48:2812,38 km/h
169LEPRETREGUILLAUMEMV100:48:2912,38 km/h
170BECKERFREDERICMSE00:48:3112,37 km/h
171ROOMMATHIEUMSE00:48:3212,37 km/h
172POPIOLSTEPHANEMV100:48:3412,36 km/h
173CATOIREFABRICEMV200:48:3712,34 km/h
174DHAUDTMICHAELMV100:48:3812,34 km/h
175LABALETTEBENOITMV100:48:4012,33 km/h
176BLONDELJOELLEFV300:48:4112,33 km/h
177ROLLINTHOMASMSE00:48:4312,32 km/h
178WATRYFRANCOISMV100:48:4712,3 km/h
179BRYSSEPATRICKMV200:48:4712,3 km/h
180VERSTRAETEREMIMSE00:48:4812,3 km/h
181WARLOPKEVINMSE00:48:4812,3 km/h
182LANGLETLEAFSE00:48:5012,29 km/h
183MEUNIERYVES ALEXANDREMV100:48:5912,25 km/h
184GUIRAUDROMAINMSE00:48:5912,25 km/h
185SENSFREDERICMV100:49:0212,24 km/h
186VANKEMMELAurelieFSE00:49:0412,23 km/h
187GUILLEMARDREGINALDMV200:49:0612,22 km/h
188DUYMESTEPHANEMV100:49:0712,22 km/h
189HOCHARTJEAN BAPTISTEMSE00:49:0912,21 km/h
190WIMMERALEXANDREMSE00:49:1112,2 km/h
191LAMSGUENOLEMV100:49:1212,2 km/h
192NORBERTOLIVIERMV100:49:1312,19 km/h
193VANUXEMLUDOVICMV100:49:1512,19 km/h
194LEGROSJEROMEMV100:49:1512,18 km/h
195DHILLYANTOINEMSE00:49:1712,18 km/h
196LEFRANCQALEXANDREMSE00:49:1712,18 km/h
197DEBERDTVIANNEYMSE00:49:1812,17 km/h
198VERMERSCHBARTHELEMYMES00:49:1812,17 km/h
199CHATELAINEDDYMSE00:49:2012,17 km/h
200LAHOUSSELAURENTMV100:49:2212,16 km/h
201CAILLIEREZPIERREMV100:49:2312,15 km/h
202JEDATEMILIEFSE00:49:2312,15 km/h
203CARDONADRIENMSE00:49:2812,13 km/h
204VERLETSTEPHANEMV200:49:3112,12 km/h
205DESAEVERHONORINEFSE00:49:3212,12 km/h
206ROMELARTQUENTINMSE00:49:3212,11 km/h
207DERAEVEDAMIENMSE00:49:3312,11 km/h
208LASUEWilfriedMSE00:49:3512,1 km/h
209VANDENKERCKHOVESTEPHMV100:49:3512,1 km/h
210DEPARISMAXIMEMV100:49:3612,1 km/h
211DEFYVEFABIENMV100:49:3712,09 km/h
212LESAFFREQuentinMSE00:49:3912,09 km/h
213VLAEMYNCKEMMANUELMV200:49:4512,06 km/h
214DEVULDERJEAN LUCMV200:49:4612,06 km/h
215DELLEBAREMichelMV300:49:5012,04 km/h
216DHALLUINISABELLEFV100:49:5712,02 km/h
217VERHAEGHEALEXANDREMSE00:49:5812,01 km/h
218CALLENSMANUMV300:49:5912 km/h
219DAUCHEZDAVIDMV200:50:0012 km/h
220CANTAGRELMARIEFSE00:50:0112 km/h
221CODRONBERNARDMV300:50:0611,98 km/h
222DERHILLESEBASTIENMSE00:50:1211,95 km/h
223RIDEZEDOUARDMSE00:50:1611,94 km/h
224LORIDANBrunoMV100:50:2011,92 km/h
225DEHEMTHIERRYMV200:50:2011,92 km/h
226CLEENEWERCKCYRILMSE00:50:2111,92 km/h
227CARRALBaptisteMSE00:50:2211,91 km/h
228LAURENTMELANIEFSE00:50:2711,9 km/h
229BELLAVOINEANTOINEMSE00:50:2711,89 km/h
230QUEVALMELINAFSE00:50:2811,89 km/h
231ROSEJEREMYMSE00:50:3111,88 km/h
232VASSEURBENEDICTEFV100:50:3211,88 km/h
233VALLARTTHOMASMSE00:50:3211,88 km/h
234HENRIQUEFERNANDESMV100:50:3511,86 km/h
235DESPLECHINTHIBAUTMSE00:50:3711,86 km/h
236ROMPAISALEXANDREMV100:50:3811,85 km/h
237DELATTREPERRINEFSE00:50:4711,82 km/h
238HOUCKEPHILIPPEMV300:50:4811,81 km/h
239LECOMTEPhilippeMV200:50:4911,81 km/h
240EVRARDValentinMSE00:50:5011,81 km/h
241TERRIERJEANMSE00:50:5011,8 km/h
242BLAECKEOLIVIERMV100:50:5511,78 km/h
243DHELLEMMEHADRIENMSE00:51:0111,76 km/h
244MANNECHEZDOMINIQUEMV100:51:0211,76 km/h
245CREPELCHRISTOPHEMV100:51:0211,76 km/h
246CHRISTIAENSLaurentMV200:51:0911,73 km/h
247CAZEELMickaelMSE00:51:1011,73 km/h
248FACHEKEVINMSE00:51:1111,73 km/h
249DUYCKJEAN BAPTISTEMSE00:51:1111,72 km/h
250MILLIETMELANIEFSE00:51:1211,72 km/h
251LAVALALAINMV200:51:1411,71 km/h
252LELEUDENISMV100:51:1411,71 km/h
253DEMANMATTHIEUMSE00:51:1511,71 km/h
254BODINLUDOVICMV100:51:1611,71 km/h
255BELPALMEALICEFSE00:51:1611,71 km/h
256DORMIEUPHILIPPEMV200:51:1911,69 km/h
257LEHAIREXAVIERMV200:51:2211,68 km/h
258DEPECKEREMMANUELMV100:51:2211,68 km/h
259CONNOIOUXSEBASTIENMV100:51:2311,68 km/h
260DECLERCQPHILIPPEMV200:51:2811,66 km/h
261AMAGATDamienMSE00:51:2811,66 km/h
262BEDDAHMustaphaMSE00:51:2911,66 km/h
263BAROLAT MASSOLEPHILIPPMV200:51:3311,64 km/h
264PONCHEPAULMV300:51:3511,63 km/h
265MAHIEUBERNARDMV200:51:3511,63 km/h
266PHILIPPEDidierMV200:51:3711,63 km/h
267HARZIGCHRISTIANEFV200:51:4011,62 km/h
268DESEUREBENOITMV100:51:4211,61 km/h
269PACCOUDOMINIQUEFV100:51:4311,6 km/h
270BOUTRYMARTINMV100:51:4411,6 km/h
271BRICEFOUCAULDMSE00:51:5111,57 km/h
272LAMSCAROLEFV100:51:5211,57 km/h
273DORMIEUHELENEFV100:51:5411,56 km/h
274DECHERFBENOITMSE00:52:0111,54 km/h
275WEYNANTSFLAVIEFSE00:52:0311,53 km/h
276TITRENMaïtéFSE00:52:1011,5 km/h
277WIERREAudeFSE00:52:1111,5 km/h
278FLIPOOLIVIERMV100:52:1111,5 km/h
279LEROYOLIVIERMV100:52:1411,49 km/h
280MULLERBENJAMINMSE00:52:1411,49 km/h
281SCHERRIERArnaudMV100:52:1411,49 km/h
282DUVALJulienMSE00:52:1811,47 km/h
283LEGROISCHRISTINEFV200:52:2011,47 km/h
284BENAULTPRISCILLAFSE00:52:2111,46 km/h
285OSTYNGREGORYMSE00:52:2211,46 km/h
286MORMENTYNJEREMYMSE00:52:2611,44 km/h
287LUTTUNVICTORMES00:52:2811,44 km/h
288VERLEENEOLIVIERMV100:52:3011,43 km/h
289GOBLETMELANIEFV100:52:3311,42 km/h
290SAPELIERCHRISTOPHEMV200:52:3411,41 km/h
291BECUEBAPTISTEMSE00:52:3511,41 km/h
292BRUNOTPHILIPPEMV300:52:4111,39 km/h
293VERMONSABINEFV200:52:4411,38 km/h
294CHOLLIERDOROTHEEFSE00:52:4611,37 km/h
295CHATELAINDAVYMSE00:52:4711,37 km/h
296DUTILLEULFabienMV100:52:4811,37 km/h
297GELLESVIVIANEFV100:52:4911,36 km/h
298BOCQUETERICMV200:52:5111,35 km/h
299LAGELUDOVICMSE00:52:5211,35 km/h
300HANQUEZOLIVIERMSE00:52:5411,35 km/h
301VANDERSLUYSTEOMCA00:52:5511,34 km/h
302DURETZPHILIPPEMV200:52:5611,34 km/h
303VERLETTANGUYMSE00:52:5611,34 km/h
304PARISJEAN SEBASTIENMSE00:52:5711,33 km/h
305LOONESGUILLAUMEMV100:52:5811,33 km/h
306WILLEMOTTEDAVIDMV100:52:5911,33 km/h
307WILPOTEMAITEFSE00:53:0111,32 km/h
308DEFOORTCyrilMV100:53:0211,32 km/h
309NOEZHUBERTMV200:53:0311,31 km/h
310VANWAELSCAPPELFabienMSE00:53:0411,31 km/h
311DESMETDAMIENMV100:53:0611,3 km/h
312BUCKMANNICOLASMSE00:53:0711,3 km/h
313VASSEUR DELIGNECHARLOFSE00:53:0811,3 km/h
314FAGHELElvisMV100:53:1411,27 km/h
315HUVELIEMARIE LINEFV100:53:1411,27 km/h
316DERREUMAUXMichaelMV100:53:1511,27 km/h
317DESPREZCLEMENTMSE00:53:1611,27 km/h
318AMMELOOTJeromeMSE00:53:1611,26 km/h
319BUTEZANTOINEMV200:53:1911,26 km/h
320STAESBENOITMSE00:53:2011,25 km/h
321HOUEDEYANNMV100:53:2411,24 km/h
322VANSTEELANTMYLENEFSE00:53:2411,24 km/h
323DEVIENNEGILLESMSE00:53:2511,23 km/h
324BODARTSEBASTIENMV100:53:3211,21 km/h
325THULLIERCharlotteFSE00:53:3411,2 km/h
326DENNEQUINOLIVIERMV100:53:3511,2 km/h
327FRENAYLAURENTMV200:53:3611,19 km/h
328ACKETMANONFES00:53:3711,19 km/h
329TERRIERMICHELMV300:53:3811,19 km/h
330OUAICHEGregoryMSE00:53:3811,19 km/h
331DANELSVINCENTMV100:53:3911,19 km/h
332LIETARDSEBASTIENMV100:53:4011,18 km/h
333DHALLUINDAVIDMV100:53:4311,17 km/h
334TRINELSebastienMSE00:53:4611,16 km/h
335BOSSARTGregoryMV100:53:5111,14 km/h
336GUIDEZJEAN MARCMV100:53:5211,14 km/h
337TAORMINAVINCENTMV100:53:5511,13 km/h
338AVIGNONDAVIDMV100:53:5711,12 km/h
339PLOUVIERVALERIEFV100:53:5711,12 km/h
340DESMULIERMICHAELMV100:53:5911,12 km/h
341WARYNTHOMASMSE00:54:0311,1 km/h
342PLANTEVINHENRIMV100:54:0311,1 km/h
343DEPUTTEARNAUDMSE00:54:0411,1 km/h
344VERHILLESEBASTIENMV100:54:0411,1 km/h
345RAMONANTHONYMSE00:54:0911,08 km/h
346DROSSARTOLIVIERMV100:54:1211,07 km/h
347DENYSPHILIPPEMV200:54:1511,06 km/h
348MOULINMARTINMSE00:54:1711,05 km/h
349RATTEZBERTRANDMV100:54:1811,05 km/h
350AITKIZZI RACHIDMSE00:54:1911,05 km/h
351CORBEAUBRUNOMV200:54:2011,05 km/h
352PLUQUINOLIVIERMV100:54:2111,04 km/h
353DERHILLESTEPHANEMV100:54:2411,03 km/h
354VANCAYZEELECHRISTIANMV300:54:2611,02 km/h
355COUSINNICOLASMSE00:54:2611,02 km/h
356SZYMCZAKMAXIMEMSE00:54:2811,02 km/h
357PLOUVIERPERRINEFSE00:54:2911,02 km/h
358DEBRUYNEAGNESFSE00:54:3710,99 km/h
359VANHERSELGUILLEMETTEFSE00:54:4010,98 km/h
360COSTENOBLEPAULINEFSE00:54:4210,97 km/h
361SPETEBROOTBENJAMINMV100:54:4210,97 km/h
362GELOENCLEOFSE00:54:4410,96 km/h
363VANWAELSCAPPELQUENTIMSE00:54:4810,95 km/h
364ROMPAISLAURENCEFV100:54:5410,93 km/h
365BEHAEGELMARIEFSE00:54:5410,93 km/h
366LECLERCQPASCALMV100:54:5510,93 km/h
367VANDENBUSSCHECEDRICMV100:54:5610,92 km/h
368HOTTEJONAtHANMSE00:54:5610,92 km/h
369MATONFREDERICMV100:55:0010,91 km/h
370MARCHANDISETHOMASMSE00:55:0010,91 km/h
371TERRIERBERTRANDMV200:55:0210,9 km/h
372GUEROUTTHOMASMSE00:55:0210,9 km/h
373DURETZLAURENEFSE00:55:0310,9 km/h
374GAMOTREMYMSE00:55:0310,9 km/h
375CROESFLORENCEFSE00:55:0410,9 km/h
376POUMAEREMATHIEUMSE00:55:0410,9 km/h
377DECROCKBENOITMSE00:55:0610,89 km/h
378VARRASSESEBASTIENMV100:55:0810,88 km/h
379LEMAIRELAURENTMV100:55:0910,88 km/h
380MILLENINONFCA00:55:1010,88 km/h
381DELEYENOELMV200:55:1410,86 km/h
382BOONAERTVIRGINIEFSE00:55:1710,85 km/h
383MAESDominiqueMV200:55:1810,85 km/h
384DI LIEGRORENATOMSE00:55:1910,85 km/h
385DEVOSPERRINEFSE00:55:2510,83 km/h
386LIEFOOGHEREMIMSE00:55:2610,83 km/h
387GILLOENLIONELMV100:55:2810,82 km/h
388ROUSERECHRISTELLEFV100:55:3710,79 km/h
389DECOUVELAERELUDIVINEFV100:55:3810,79 km/h
390LEMAIREFLORENTMSE00:55:4110,78 km/h
391GRIMONPONTPaulineFSE00:55:5410,73 km/h
392BERNARDANNE MARIEFV300:55:5510,73 km/h
393LOVINYFLORIANEFSE00:55:5510,73 km/h
394VILLATTEMATHILDEFV100:55:5710,72 km/h
395RUCKEBUSCHEMILIEFV100:55:5910,72 km/h
396LIEBAERTFABRICEMV200:56:0010,72 km/h
397ROLLANDAUDREY VANESSAMSE00:56:0410,7 km/h
398ROLLANDCHRISTIANMV100:56:1310,67 km/h
399BERTHESCHARLOTTEFSE00:56:1810,66 km/h
400GUEGUENARTHURMCA00:56:2310,64 km/h
401VERHAEGHECelineFSE00:56:2310,64 km/h
402DUMEZALEXANDREMV100:56:2710,63 km/h
403POETTEARNAUDMSE00:56:2710,63 km/h
404VANDENABEELEFranckMV100:56:2810,63 km/h
405DERHILLEREGISMV300:56:2810,63 km/h
406VASSEURFREDERICMV100:56:2810,63 km/h
407CHANTRYELIEMJU00:56:3010,62 km/h
408MICHALSKIDELPHINEFV100:56:3010,62 km/h
409DUBOISGrégoryMSE00:56:3110,62 km/h
410VERDRUCHANTALFV200:56:3310,61 km/h
411DUFOURFLORIANMCA00:56:3510,61 km/h
412DENAESOLIVIERMV100:56:4010,59 km/h
413STORETCESARMSE00:56:4210,58 km/h
414GUERLAINSTEPHANIEFV100:56:4310,58 km/h
415BIDAUDJean marcMV200:56:4510,57 km/h
416DELEYEDavidMV100:56:4610,57 km/h
417HOULINSYLVAINMSE00:56:5210,55 km/h
418BERNARDDavidMV100:56:5310,55 km/h
419DUMORTIERLUDOVICMSE00:56:5610,54 km/h
420BARROISFABIENMSE00:57:0110,52 km/h
421DUCOURANTJORDANEMSE00:57:0210,52 km/h
422DEZITTERDominiqueMV200:57:0610,51 km/h
423MACETTIBENOITMV100:57:0810,5 km/h
424BOIDINANNE SOPHIEFV100:57:0810,5 km/h
425BAUDEMelanieFV100:57:0910,5 km/h
426DELATTRESylvainMSE00:57:1110,5 km/h
427DEBRILPAULINEFSE00:57:1210,49 km/h
428DERHILLEAURELIEFSE00:57:1210,49 km/h
429SINGEZMARIEFSE00:57:1410,49 km/h
430BACROTFREDERICMV100:57:1510,48 km/h
431TITTELEINFRANCOISMV100:57:1810,47 km/h
432JORDANACELINEFSE00:57:2010,47 km/h
433DEVOSCELINEFSE00:57:2310,46 km/h
434DEQUIDTVINCENTMV200:57:2610,45 km/h
435DESODTSULLIVANMSE00:57:2610,45 km/h
436HAUERICMV200:57:2710,44 km/h
437CAPELAEREFABIENNEFV100:57:3110,43 km/h
438PRINCEJEAN LUCMV200:57:3210,43 km/h
439LANDOUZYYVESMV300:57:3310,43 km/h
440CATTEAUANDREMV400:57:3310,43 km/h
441BAYARTJULIENMSE00:57:4710,39 km/h
442LEMORTANGELIQUEFSE00:57:5310,37 km/h
443MINNEBOISMICKAELMV100:57:5510,36 km/h
444VANDENAMEELAURELIENMSE00:57:5610,36 km/h
445BOEYARTRENEMV200:57:5610,36 km/h
446COULIERREMIMV100:57:5810,35 km/h
447LEFEBVREGuillaumeMSE00:57:5910,35 km/h
448MOREELLUCIEFV100:58:0010,35 km/h
449MAYEURFRANKMSE00:58:0110,34 km/h
450VANGRAEFSCHEPELOICMSE00:58:0210,34 km/h
451DEFFONTAINEPAUL ANDREMV200:58:0610,33 km/h
452MACHEZNICOLASMSE00:58:1010,32 km/h
453BECKERAURELIEFV100:58:1410,31 km/h
454BECKERMATTHIEUMSE00:58:1510,3 km/h
455DEVILLEZMICKAELMV100:58:1610,3 km/h
456VAUPREAMANDINEFSE00:58:1710,3 km/h
457VERSTRAETEOLIVIERMSE00:58:1910,29 km/h
458CARPAUXPASCALMV200:58:2010,29 km/h
459COUBRONNESIMONMV100:58:2310,28 km/h
460HELBOISNICOLASMSE00:58:2310,28 km/h
461MELCHERSMARTINEFV200:58:2910,26 km/h
462PENACLEMENTMSE00:58:3010,26 km/h
463CAPRONJULIETTEFSE00:58:3110,26 km/h
464BAROLAT MASSOLETHIBAUMSE00:58:3210,25 km/h
465DEFRANCQVINCENTMV100:58:3710,24 km/h
466DERAMFABRICEMV100:58:3810,24 km/h
467DANNEELSCLEMENTMSE00:58:3810,23 km/h
468BOONETHOMASMSE00:58:3910,23 km/h
469WAUTHIERPHILIPPEMV200:58:4010,23 km/h
470MINNEPIERRE YVESMSE00:58:4210,22 km/h
471MOUROTBENJAMINMSE00:58:4310,22 km/h
472VERSTRAETEEMILIEFSE00:58:4410,22 km/h
473FICHTENFLORIANEFSE00:58:4710,21 km/h
474GUEGUENANTOINEMV100:58:5010,2 km/h
475NEMRIDavidMV100:58:5110,2 km/h
476LEMIEREJOELMV200:58:5210,19 km/h
477SEILLIERODILEFSE00:58:5510,19 km/h
478VERLEENESOPHIEFSE00:58:5810,18 km/h
479MICHEENathalieFV100:58:5910,18 km/h
480LOPESALISSONFSE00:59:0110,17 km/h
481CAGNACAMELIEFSE00:59:0210,16 km/h
482CAGNACBERTRANDMV100:59:0610,15 km/h
483COURDAINMANDYFSE00:59:1010,14 km/h
484QUARREMarionFSE00:59:1510,13 km/h
485MARYALEXISMSE00:59:1610,13 km/h
486LETORCHRISTELFV100:59:1610,13 km/h
487MARQUILLYDOMINIQUEMV300:59:1610,12 km/h
488LEFEBVREAndréMV300:59:2010,11 km/h
489DECHERFNicolasMSE00:59:2110,11 km/h
490TREHOUXSIMONMCA00:59:2110,11 km/h
491VEROLLEMANAUDREYFV100:59:2310,1 km/h
492LEMPERIERECLARAFES00:59:2710,09 km/h
493BRASSARDVANINAFSE00:59:3310,08 km/h
494ROSEOlivierMV100:59:3710,07 km/h
495DUSAUTOIRTHIERRYMV100:59:3910,06 km/h
496PINCHONBARBARAFSE00:59:4010,06 km/h
497DEGRAEVEMARINAFSE00:59:5210,03 km/h
498DOMENGERDAVIDMV100:59:5510,02 km/h
499BELLYNCKJESSICAFSE00:59:5510,02 km/h
500DEMANMARINEFSE00:59:5610,01 km/h
501BARBRYYANNICKMSE00:59:5610,01 km/h
502WALLAERT MAILLARDAurelFSE00:59:5810,01 km/h
503DHALLENNEGIOVANNIMSE01:00:0010 km/h
504BOURBOTTECELINEFSE01:00:059,99 km/h
505DELATTRELIONELMSE01:00:079,98 km/h
506DIDIERAlainMV201:00:079,98 km/h
507DIDIERCHRISTINEFV201:00:089,98 km/h
508BROUARDNICOLASMSE01:00:139,96 km/h
509DEVEYEREDDYMSE01:00:179,95 km/h
510SALMONGIOVANNIMCA01:00:209,95 km/h
511LARGILLIERETHOMASMCA01:00:229,94 km/h
512FLAUWalexisMSE01:00:229,94 km/h
513LECOINTREJeremyMSE01:00:239,94 km/h
514LEMAIRESébastienMSE01:00:249,94 km/h
515ROSECORINEFV101:00:269,93 km/h
516BOURDONALEXIMCA01:00:279,93 km/h
517JESSENNESABRINAFSE01:00:289,92 km/h
518DUHAMELGaelMV101:00:299,92 km/h
519BIENAIMEDOROTHEEFSE01:00:299,92 km/h
520MILLEELISABETHFSE01:00:309,92 km/h
521LAMPEMELANIEFV101:00:309,92 km/h
522VERSTAEVELALEXANDREMES01:00:319,92 km/h
523LEFEBVRESophieFSE01:00:319,92 km/h
524DERYCKEAudreyFSE01:00:329,91 km/h
525BAILLEULMATHIEUMSE01:00:329,91 km/h
526COLLIEMARIEFSE01:00:339,91 km/h
527TRAISNELJEROMEMV101:00:519,86 km/h
528PAQUETJENNIFERFSE01:00:559,85 km/h
529FRANCOISREMIMSE01:01:039,83 km/h
530DELEYEMélanieFV101:01:069,82 km/h
531LORIDONYVESMV301:01:129,81 km/h
532WYCKAERTCONSTANCEFSE01:01:139,8 km/h
533STORETCOLOMBEFSE01:01:169,8 km/h
534HERMARYAlexandraFV101:01:189,79 km/h
535BOLANDLAETITIAFSE01:01:199,79 km/h
536DELOUXDELOUXFSE01:01:209,78 km/h
537OUAICHEAgatheFSE01:01:209,78 km/h
538LEGERLUCIEFSE01:01:219,78 km/h
539OBERTCAROLINEFV101:01:229,78 km/h
540VANDENBUSSCHECELINEFSE01:01:239,78 km/h
541NAYEDELPHINEFSE01:01:249,77 km/h
542LEMPERIEREGEOFFROYMSE01:01:259,77 km/h
543SIXLYDIAFV201:01:279,77 km/h
544LOVINYINGRIDFV101:01:299,76 km/h
545POULAINRYANMES01:01:319,76 km/h
546POULAINSANDRAFV101:01:329,75 km/h
547DERVAUXJulieFSE01:01:419,73 km/h
548VALLESYLVIANEFV201:01:429,73 km/h
549DEGRAEVECELINEFSE01:01:449,72 km/h
550LEMBREZMATHIASMSE01:01:459,72 km/h
551MEURILLONALEXISMSE01:01:539,7 km/h
552POISMANSMARCMV301:01:579,69 km/h
553JESSENNEJACINTHEFSE01:02:029,67 km/h
554BOSCHETTIJULIEFSE01:02:039,67 km/h
555BOSCHETTIMAXIMEMV101:02:039,67 km/h
556DEBAECKERVALERIEFV101:02:069,66 km/h
557BENUFFEPRISCAFSE01:02:079,66 km/h
558MILLECHARLENEFES01:02:169,64 km/h
559BOEYARTMARIE DOMINIQUEFV201:02:169,64 km/h
560MAEGHTVINCENTMV201:02:179,64 km/h
561TIMMERMANDOMINIQUEMV101:02:199,63 km/h
562BOUCHEZFredericMV201:02:209,63 km/h
563RANCHYDELPHINEFSE01:02:209,63 km/h
564CAGNACBENOITMV101:02:219,62 km/h
565DERREUMAUXMarylèneFSE01:02:239,62 km/h
566VANDOORENFABRICEMV101:02:269,61 km/h
567FUMERYCHANTALFV101:02:299,61 km/h
568GAILLARDFrançoiseFV201:02:299,6 km/h
569BANDARZNATHALIEFV201:02:349,59 km/h
570MARROTMARINEFSE01:02:359,59 km/h
571VERFAILLEARNAUDMV101:02:429,57 km/h
572BREVIEREDELPHINEFV201:02:509,55 km/h
573STEGMANNTHIERRYMV101:02:569,53 km/h
574DECHERFJEAN-FRANCOISMSE01:02:599,53 km/h
575DEWULFAGNESFSE01:03:029,52 km/h
576BUTEZCAPUCINEFCA01:03:039,52 km/h
577DUYCKLUCILEFSE01:03:049,51 km/h
578MILLOTREBECCAFSE01:03:089,5 km/h
579DESSERREJEREMYMSE01:03:119,5 km/h
580BARRASOLIVIERMV201:03:129,5 km/h
581BARRASANAISFSE01:03:149,49 km/h
582DEQUIDTLEOCADIEFSE01:03:149,49 km/h
583DEROOSEVERINEFSE01:03:209,48 km/h
584FOURNIERANNEFV101:03:219,47 km/h
585RICHARDAMELIEFSE01:03:219,47 km/h
586DEROOGUILLAUMEMV101:03:229,47 km/h
587THELLIERFREDERICMSE01:03:239,47 km/h
588DHOLLANDEDAVIDMSE01:03:259,46 km/h
589MELCHERSDAMIENMV301:03:279,46 km/h
590CAILLIEREZNATHALIEFV101:03:299,45 km/h
591DELCAMBREPAULMSE01:03:309,45 km/h
592THILLYISABELLEFV201:03:349,44 km/h
593MORMENTYNGUILLAUMEMSE01:03:359,44 km/h
594BEHAEGELCAROLINEFV101:05:019,23 km/h
595SIMONANGELIQUEFSE01:05:029,23 km/h
596SOWAAMANDINEFSE01:05:029,23 km/h
597TREHOUXCHARLOTTEFES01:05:049,22 km/h
598PATRICESIMONMV101:05:119,21 km/h
599FRACKOWIAKCHLOEFES01:05:119,2 km/h
600DUSAUTOIRSONIAFV101:05:229,18 km/h
601DEMANMANONFSE01:05:239,18 km/h
602PIERRECATHERINEFV101:05:249,18 km/h
603HERAMELIEFSE01:05:289,17 km/h
604NUGUESCAROLINEFSE01:05:329,16 km/h
605MARQUISEJEROMEMSE01:05:349,15 km/h
606DECOOPMANHELENEFSE01:05:479,12 km/h
607PEROYSTEPHANEMV201:05:519,11 km/h
608PEROYCAROLEFV101:05:539,11 km/h
609DECKMYNCEDRICMES01:05:549,11 km/h
610AMMEUXALINEFSE01:05:599,09 km/h
611DECOUVELAEREAURELIEFSE01:06:079,08 km/h
612WILLIERVALAMELIEFSE01:06:089,07 km/h
613BIENAIMELAURENCEFV201:06:089,07 km/h
614HARDYPASCALMV201:06:099,07 km/h
615CAZEELLOUISEFSE01:06:109,07 km/h
616ROUSSELLESYLVIEFV101:06:239,04 km/h
617DESMULIERANGELIQUEFV101:06:239,04 km/h
618DELEU ROLLETANNEFSE01:06:269,03 km/h
619CHOMBEAUDOMINIQUEMV201:06:339,02 km/h
620SUCHECKIXAVIERMV101:06:488,98 km/h
621DHEELOUISEFSE01:06:488,98 km/h
622WALLAERTPhilippeMV201:06:488,98 km/h
623LAHAYENICOLASMV101:06:498,98 km/h
624VANDENBROUCKEMARIANFSE01:06:508,98 km/h
625DUSAUTOIRAURELIENMSE01:06:518,98 km/h
626HAMILLEISABELLEFSE01:06:528,97 km/h
627TERNISIENMATHILDEFSE01:06:538,97 km/h
628MADOUXJOSEMJU01:07:008,96 km/h
629FRENOISPERRINEFSE01:07:048,95 km/h
630LIEBAERTGUILLAUMEMSE01:07:078,94 km/h
631BAROLAT MASSOLEANTOINMES01:07:088,94 km/h
632TENGOWSKINATHALIEFV201:07:138,93 km/h
633GARSYvesMV301:07:168,92 km/h
634FOURRIERMARIONFV101:07:168,92 km/h
635FIQUETJOELMV201:07:188,92 km/h
636STOFFAESMARIEFSE01:07:188,92 km/h
637SUAREZALICEFSE01:07:408,87 km/h
638TREFELDAVIDMV101:08:128,8 km/h
639GILLEDOROTHEEFV201:08:188,79 km/h
640HOUPLAINFLORENCEFV201:08:218,78 km/h
641SISGASPARMJU01:08:278,77 km/h
 Pas de résultats